Hourly Data Report for September 01, 2017

All times are specified in Local Standard Time (LST). Add 1 hour to adjust for Daylight Saving Time where and when it is observed.

KOUCHIBOUGUAC CS
NEW BRUNSWICK

46°47'00.000" N
65°01'00.000" W
21.00 m
8102328
71670
AKC

Download Data

Hourly Data (September 2017)
Hourly Data Report for September 1, 2017
Temp Definition
°C
Dew Point Temp Definition
°C
Rel Hum Definition
%
Wind Dir Definition
10's deg

Wind Spd Definition
km/h
Visibility Definition
km
Stn Press Definition
kPa
Hmdx Definition


Wind Chill Definition


Weather Definition


TIME
00:00 9.1 7.0 86 29 5   100.24     LegendNANA
01:00 7.6 6.1 90 21 3   100.27     LegendNANA
02:00 6.0 5.1 94 26 1   100.26     LegendNANA
03:00 6.3 5.3 93 22 4   100.26     LegendNANA
04:00 5.9 5.2 95 23 3   100.27     LegendNANA
05:00 6.5 5.9 96 20 5   100.30     LegendNANA
06:00 7.1 6.4 96 22 4   100.32     LegendNANA
07:00 8.2 6.8 91 24 7   100.35     LegendNANA
08:00 10.4 7.3 81 27 6   100.35     LegendNANA
09:00 12.5 6.3 66 26 11   100.35     LegendNANA
10:00 12.0 5.8 66 26 9   100.35     LegendNANA
11:00 12.6 5.3 61 27 11   100.32     LegendNANA
12:00 15.2 3.5 46 27 16   100.27     LegendNANA
13:00 15.2 4.0 47 24 13   100.28     LegendNANA
14:00 12.9 4.8 58 26 14   100.31     LegendNANA
15:00 13.2 5.7 61 25 11   100.33     LegendNANA
16:00 11.8 5.0 63 26 13   100.37     LegendNANA
17:00 12.2 5.4 63 26 9   100.40     LegendNANA
18:00 11.5 6.4 71 26 9   100.46     LegendNANA
19:00 9.5 6.9 84 24 4   100.53     LegendNANA
20:00 8.8 7.3 91 24 4   100.62     LegendNANA
21:00 9.9 7.6 85 27 8   100.68     LegendNANA
22:00 10.5 7.9 84 30 7   100.73     LegendNANA
23:00 9.8 6.9 82 30 8   100.81     LegendNANA

Notes on Data Quality.

Legend

  • E = Estimated
  • M = Missing
  • NA = Not Available
  • ‡ = Partner data that is not subject to review by the National Climate Archives
Date modified: